Custer, SD

4:44 PM MST on December 14, 2017 (GMT -0700)
Custer County

Weather History for KCUT - October, 2012

Change the Weather History Date:

Tuesday, October 9, 2012

  Actual Average Record
Temperature  
Mean Temperature 33 °F 45 °F  
Max Temperature 39 °F 57 °F 80 °F (1953)
Min Temperature 26 °F 33 °F 12 °F (1993)
Degree Days  
Heating Degree Days 32 20  
Month to date heating degree days 229 171  
Since 1 July heating degree days 510 657  
Cooling Degree Days 0 0  
Month to date cooling degree days 0 0  
Year to date cooling degree days 390 177  
Moisture  
Dew Point 27 °F    
Average Humidity 71    
Maximum Humidity 89    
Minimum Humidity 52    
Precipitation  
Precipitation 0.04 in 0.06 in 0.52 in (2001)
Month to date precipitation 0.63 0.56  
Year to date precipitation 10.91 17.05  
Sea Level Pressure  
Sea Level Pressure 30.02 in    
Wind  
Wind Speed 6 mph (NW)    
Max Wind Speed 21 mph    
Max Gust Speed 29 mph    
Visibility 8 miles    
Events Rain , Snow    
T = Trace of Precipitation, MM = Missing Value Source: NWS Daily Summary

Daily Weather History Graph

Daily Weather History Graph

Search for Another Location

Airport or City:

Trip Planner

Search our weather history database for the weather conditions in past years. The results will help you decide how hot, cold, wet, or windy it might be!

Date:

Astronomy

Oct. 09, 2012 Rise Set
Actual Time 7:02 AM MDT 6:20 PM MDT
Civil Twilight 6:33 AM MDT 6:49 PM MDT
Nautical Twilight 6:00 AM MDT 7:22 PM MDT
Astronomical Twilight 5:26 AM MDT 7:55 PM MDT
Moon 12:29 AM MDT (10/9) 2:59 PM MDT (10/9)
Length of Visible Light 12h 15m
Length of Day
11h 18m
Last Quarter, 36% of the Moon is Illuminated
Oct 9
Last Quarter
Oct 15
New
Oct 21
First Quarter
Oct 29
Full
Nov 6
Last Quarter

Hourly Weather History & Observations

Time (MDT) Temp. Windchill Dew Point Humidity Pressure Visibility Wind Dir Wind Speed Gust Speed Precip Events Conditions
12:53 AM 37.9 °F 35.5 °F 35.1 °F 89% 29.86 in 10.0 mi ENE 3.5 mph - 0.00 in Rain Light Rain
1:06 AM 37.4 °F 33.8 °F 35.6 °F 93% 29.93 in 9.0 mi North 4.6 mph - 0.01 in Rain Light Rain
1:15 AM 37.4 °F 34.9 °F 33.8 °F 87% 29.93 in 10.0 mi North 3.5 mph - 0.01 in Rain Light Rain
1:27 AM 35.6 °F 32.8 °F 33.8 °F 93% 29.93 in 10.0 mi North 3.5 mph - 0.02 in Rain Light Rain
1:53 AM 36.0 °F - 33.1 °F 89% 29.89 in 10.0 mi Calm Calm - 0.02 in   Mostly Cloudy
2:53 AM 35.1 °F 31.0 °F 30.9 °F 85% 29.89 in 10.0 mi NW 4.6 mph - 0.00 in Snow Light Snow
3:20 AM 33.8 °F 30.8 °F 30.2 °F 87% 29.93 in 3.0 mi NW 3.5 mph - 0.00 in Snow Light Snow
3:34 AM 33.8 °F 29.6 °F 30.2 °F 87% 29.93 in 1.8 mi WNW 4.6 mph - 0.00 in Snow Light Snow
3:45 AM 33.8 °F 29.6 °F 30.2 °F 87% 29.93 in 2.0 mi WNW 4.6 mph - 0.00 in Snow Light Snow
3:53 AM 33.1 °F 28.7 °F 30.9 °F 92% 29.91 in 1.5 mi NW 4.6 mph - 0.00 in Snow Light Snow
4:06 AM 33.8 °F - 30.2 °F 87% 29.94 in 2.0 mi Calm Calm - 0.01 in Snow Light Snow
4:10 AM 32.0 °F 27.5 °F 30.2 °F 93% 29.95 in 1.5 mi WNW 4.6 mph - 0.01 in Snow Light Snow
4:36 AM 32.0 °F 28.7 °F 30.2 °F 93% 29.95 in 2.0 mi NNW 3.5 mph - 0.02 in Snow Light Snow
4:40 AM 32.0 °F 28.7 °F 30.2 °F 93% 29.95 in 3.0 mi NNW 3.5 mph - 0.02 in Snow Light Snow
4:53 AM 32.0 °F 28.7 °F 28.9 °F 88% 29.94 in 9.0 mi NNW 3.5 mph - 0.02 in   Overcast
5:53 AM 30.0 °F 26.5 °F 26.1 °F 85% 29.98 in 10.0 mi North 3.5 mph - N/A   Overcast
6:53 AM 28.9 °F 25.2 °F 24.1 °F 82% 30.01 in 10.0 mi WNW 3.5 mph - N/A   Overcast
7:53 AM 30.0 °F 25.2 °F 21.0 °F 69% 30.02 in 10.0 mi NW 4.6 mph - N/A   Overcast
8:53 AM 30.9 °F 26.2 °F 23.0 °F 72% 30.05 in 10.0 mi West 4.6 mph - N/A   Overcast
9:53 AM 35.1 °F 30.1 °F 24.1 °F 64% 30.04 in 10.0 mi NNW 5.8 mph - N/A   Partly Cloudy
10:53 AM 36.0 °F 27.5 °F 23.0 °F 59% 30.06 in 10.0 mi West 12.7 mph 19.6 mph N/A   Mostly Cloudy
11:53 AM 37.0 °F 27.7 °F 21.9 °F 54% 30.06 in 10.0 mi West 16.1 mph 25.3 mph N/A   Mostly Cloudy
12:53 PM 35.1 °F 26.9 °F 21.9 °F 59% 30.09 in 10.0 mi WNW 11.5 mph 18.4 mph N/A   Overcast
1:53 PM 36.0 °F 27.1 °F 23.0 °F 59% 30.09 in 10.0 mi WNW 13.8 mph 24.2 mph N/A   Overcast
2:53 PM 36.0 °F 28.0 °F 23.0 °F 59% 30.10 in 10.0 mi WNW 11.5 mph 21.9 mph N/A   Overcast
3:53 PM 37.9 °F 30.0 °F 21.0 °F 51% 30.10 in 10.0 mi WNW 12.7 mph 26.5 mph 0.00 in   Mostly Cloudy
4:53 PM 37.0 °F 29.8 °F 21.0 °F 52% 30.12 in 10.0 mi WNW 10.4 mph 21.9 mph N/A   Mostly Cloudy
5:53 PM 36.0 °F 32.1 °F 21.9 °F 57% 30.14 in 10.0 mi Variable 4.6 mph - N/A   Scattered Clouds
6:53 PM 35.1 °F 30.1 °F 23.0 °F 61% 30.17 in 10.0 mi WNW 5.8 mph - N/A   Overcast
7:53 PM 34.0 °F - 24.1 °F 67% 30.17 in 10.0 mi Calm Calm - N/A   Mostly Cloudy
8:53 PM 30.9 °F - 23.0 °F 72% 30.19 in 10.0 mi Calm Calm - N/A   Clear
9:53 PM 28.9 °F 25.2 °F 23.0 °F 78% 30.19 in 10.0 mi WSW 3.5 mph - N/A   Clear
10:53 PM 28.9 °F 25.2 °F 23.0 °F 78% 30.17 in 10.0 mi WSW 3.5 mph - N/A   Clear
11:53 PM 28.0 °F - 23.0 °F 81% 30.17 in 10.0 mi Calm Calm - N/A   Clear